Location: Del Amo
(33.8464°N, 118.2104°W)
Time: 15:45:50
(UTC+00:00)

Tiros 1 despin weight - Pass Details

Date: 17 September 2024
Orbit: 573 x 615 km, 48.2° (Epoch: 04 October)

Event Time Altitude Azimuth Distance (km) Brightness Sun altitude
Exits shadow 12:08:18 12° 322° (NW) 1,866 ? -19.2°
Maximum altitude 12:10:15 15° 350° (N) 1,695 ? -18.8°
Drops below altitude 10° 12:12:48 10° 24° (NNE) 1,983 ? -18.3°
Sets 12:16:06 0° 49° (NE) 2,889 ? -17.6°
